Regional Weather Roundup
Issued by NWS Columbia, SC

Home | Current Version | Previous Version | Text Only | Print | Product List | Glossary On
Versions: 1 2 3 4 5 6 7 8 9 10 11 12 13 14 15 16 17 18 19 20 21 22 23 24 25 26 27 28 29 30 31 32 33 34 35 36 37 38 39 40 41 42 43 44 45 46 47 48 49 50
000
ASUS42 KCAE 011310
RWRCAE
REGIONAL WEATHER ROUNDUP
NATIONAL WEATHER SERVICE COLUMBIA SC
800 AM EST SUN FEB 01 2015

NOTE: "FAIR" INDICATES FEW OR NO CLOUDS BELOW 12,000 FEET WITH NO
SIGNIFICANT WEATHER AND/OR OBSTRUCTIONS TO VISIBILITY.

NOT ALL STATIONS ARE QUALITY CONTROLLED BY THE NATIONAL
WEATHER SERVICE. USE DATA WITH CAUTION...ESPECIALLY
DEWPOINT OBSERVATIONS.

SCZ001>056-GAZ040-063>065-077-011400-
...UPSTATE SOUTH CAROLINA...

CITY           SKY/WX    TMP DP  RH WIND       PRES   REMARKS
ANDERSON       CLOUDY    38  26  62 CALM      30.24S
LIBERTY        CLOUDY    34  32  91 MISG      30.23S
SPARTANBURG    CLOUDY    43  25  49 SW5       30.23S
CLEMSON        CLOUDY    40  31  70 CALM      30.24S
GREENVILLE     CLOUDY    41  22  46 SW7       30.24S
GREENWOOD      CLOUDY    37  28  70 CALM      30.27S
GREER          CLOUDY    40  24  53 S5        30.22S
ROCK HILL      CLOUDY    39  23  52 S3        30.26R
CHESTER        CLOUDY    41  23  48 S3        30.27R
LAURENS        CLOUDY    37  32  81 S5        30.25F WCI  34


...CENTRAL SOUTH CAROLINA...

CITY           SKY/WX    TMP DP  RH WIND       PRES   REMARKS
COLUMBIA APT   MOCLDY    39  29  67 CALM      30.30R
COLUMBIA OWENS MOCLDY    39  29  67 CALM      30.31R
DARLINGTON     CLOUDY    37  28  70 SE3       30.30F
FLORENCE       CLOUDY    38  31  76 CALM      30.30F
MCENTIRE ANGB  MOCLDY    35  29  78 CALM      30.30R
ORANGEBURG     PTCLDY    36  29  75 CALM      30.30R
SUMTER SHAW    CLOUDY    37  29  72 S3        30.29R
NEWBERRY       PTSUNNY   37  27  65 S3        30.29F
AIKEN          FAIR      37  32  81 CALM      30.30S
BARNWELL       FAIR      37  32  81 CALM      30.30R
MANNING        FAIR      36  36 100 CALM      30.31F
CAMDEN         FAIR      39  23  52 CALM      30.31R
LANCASTER      CLOUDY    37  27  65 CALM      30.28R
WINNSBORO      CLOUDY    39  25  56 SE5       30.27S


...EASTERN AND COASTAL SOUTH CAROLINA...

CITY           SKY/WX    TMP DP  RH WIND       PRES   REMARKS
MYRTLE BEACH   PTCLDY    39  34  81 SW6       30.35R WCI  35
N MYRTLE BCH   CLOUDY    39  36  89 CALM      30.33R
MARION         FAIR      37  32  81 CALM      30.32S
HARTSVILLE     FAIR      37  34  87 CALM      30.30R
FLORENCE       CLOUDY    38  31  76 CALM      30.30F
DARLINGTON     CLOUDY    37  28  70 SE3       30.30F
CHARLESTON APT MOCLDY    41  36  82 CALM      30.31F
MOUNT PLEASANT FAIR      37  36  93 CALM      30.32S
WALTERBORO     PTSUNNY   37 N/A N/A CALM      30.31S
BEAUFORT       PTCLDY    43  40  89 CALM      30.30S


...EASTERN GEORGIA...

CITY           SKY/WX    TMP DP  RH WIND       PRES   REMARKS
AUGUSTA BUSH F MOCLDY    36  31  82 CALM      30.29R
AUGUSTA DANIEL MOCLDY    42  28  57 SE3       30.28R
THOMSON        MOCLDY    38  35  86 CALM      30.30F
WASHINGTON     FAIR      41  36  81 SE6       30.24S
CLAXTON        FAIR      32  32 100 CALM      30.28S
SYLVANIA       SUNNY     35  35 100 CALM      30.29R
STATESBORO     CLEAR     33  33 100 CALM      30.28S
SAVANNAH       MOCLDY    38  35  89 CALM      30.29S


...SOUTHERN NORTH CAROLINA...

CITY           SKY/WX    TMP DP  RH WIND       PRES   REMARKS
CHARLOTTE      CLOUDY    41  22  46 S3        30.25S
MONROE         CLOUDY    41  22  46 S5        30.25S
WADESBORO      CLOUDY    36  29  74 CALM      30.29S
ROCKINGHAM       N/A     37  24  57 CALM      30.29S
RUTHERFORDTON  CLOUDY    36  25  66 NE3       30.23R
ASHEVILLE      CLOUDY    37  19  48 SE5       30.18R WCI  33

$$



USA.gov is the U.S. government's official web portal to all federal, state and local government web resources and services.